Wetterdaten: Donnerstag, 21.11.2013
Datum Zeit Temperatur Luftfeuchte Luftdruck Regen Wind Richtung Richtung Taupunkt Windchill Windben
21.11.2013 00:00 0,4 C 95 % 1003,4 hPa 0,0 l/m 0,0 km/h (0 Bft) NO 45 -0,3 C 0,2 C 0,0 km/h (0 Bft)
21.11.2013 00:05 0,4 C 95 % 1003,2 hPa 0,0 l/m 0,0 km/h (0 Bft) NO 45 -0,3 C 0,2 C 0,0 km/h (0 Bft)
21.11.2013 00:10 0,4 C 95 % 1003,2 hPa 0,0 l/m 0,0 km/h (0 Bft) NO 45 -0,3 C 0,2 C 0,0 km/h (0 Bft)
21.11.2013 00:15 0,4 C 95 % 1003,2 hPa 0,0 l/m 0,0 km/h (0 Bft) NO 45 -0,3 C 0,2 C 0,0 km/h (0 Bft)
21.11.2013 00:20 0,4 C 95 % 1003,2 hPa 0,0 l/m 0,0 km/h (0 Bft) NO 45 -0,3 C 0,2 C 0,0 km/h (0 Bft)
21.11.2013 00:25 0,4 C 95 % 1003,1 hPa 0,0 l/m 0,0 km/h (0 Bft) NO 45 -0,3 C 0,2 C 0,0 km/h (0 Bft)
21.11.2013 00:30 0,4 C 95 % 1003,1 hPa 0,0 l/m 0,0 km/h (0 Bft) NO 45 -0,3 C 0,2 C 0,0 km/h (0 Bft)
21.11.2013 00:35 0,4 C 95 % 1003,1 hPa 0,0 l/m 0,0 km/h (0 Bft) NO 45 -0,3 C 0,2 C 0,0 km/h (0 Bft)
21.11.2013 00:40 0,4 C 95 % 1003,1 hPa 0,0 l/m 0,0 km/h (0 Bft) NO 45 -0,3 C 0,2 C 0,0 km/h (0 Bft)
21.11.2013 00:45 0,4 C 95 % 1002,9 hPa 0,0 l/m 0,0 km/h (0 Bft) NO 45 -0,3 C 0,2 C 0,0 km/h (0 Bft)
21.11.2013 00:50 0,4 C 95 % 1002,9 hPa 0,0 l/m 0,0 km/h (0 Bft) NO 45 -0,3 C 0,2 C 0,0 km/h (0 Bft)
21.11.2013 00:55 0,4 C 95 % 1002,9 hPa 0,0 l/m 0,0 km/h (0 Bft) NO 45 -0,3 C 0,2 C 0,0 km/h (0 Bft)
21.11.2013 01:00 0,4 C 95 % 1002,9 hPa 0,0 l/m 0,0 km/h (0 Bft) NO 45 -0,3 C 0,2 C 0,0 km/h (0 Bft)
21.11.2013 01:05 0,4 C 95 % 1002,5 hPa 0,0 l/m 0,0 km/h (0 Bft) NO 45 -0,3 C 0,2 C 0,0 km/h (0 Bft)
21.11.2013 01:10 0,3 C 95 % 1002,5 hPa 0,0 l/m 0,0 km/h (0 Bft) NO 45 -0,4 C 0,2 C 0,0 km/h (0 Bft)
21.11.2013 01:15 0,3 C 95 % 1002,5 hPa 0,0 l/m 0,0 km/h (0 Bft) NO 45 -0,4 C 0,2 C 0,0 km/h (0 Bft)
21.11.2013 01:20 0,3 C 95 % 1002,5 hPa 0,0 l/m 0,0 km/h (0 Bft) NO 45 -0,4 C 0,1 C 0,0 km/h (0 Bft)
21.11.2013 01:25 0,4 C 95 % 1002,4 hPa 0,0 l/m 0,0 km/h (0 Bft) NO 45 -0,3 C 0,1 C 0,0 km/h (0 Bft)
21.11.2013 01:30 0,4 C 95 % 1002,4 hPa 0,0 l/m 0,0 km/h (0 Bft) NO 45 -0,3 C 0,2 C 0,0 km/h (0 Bft)
21.11.2013 01:35 0,4 C 95 % 1002,4 hPa 0,0 l/m 0,0 km/h (0 Bft) NO 45 -0,3 C 0,2 C 0,0 km/h (0 Bft)
21.11.2013 01:40 0,4 C 95 % 1002,4 hPa 0,0 l/m 0,0 km/h (0 Bft) NO 45 -0,3 C 0,3 C 0,0 km/h (0 Bft)
21.11.2013 01:45 0,4 C 95 % 1002,2 hPa 0,0 l/m 0,0 km/h (0 Bft) NO 45 -0,3 C 0,3 C 0,0 km/h (0 Bft)
21.11.2013 01:50 0,4 C 95 % 1002,2 hPa 0,0 l/m 0,0 km/h (0 Bft) NO 45 -0,3 C 0,3 C 0,0 km/h (0 Bft)
21.11.2013 01:55 0,4 C 95 % 1002,2 hPa 0,0 l/m 0,0 km/h (0 Bft) NO 45 -0,3 C 0,3 C 0,0 km/h (0 Bft)
21.11.2013 01:58 0,4 C 95 % 1002,2 hPa 0,0 l/m 0,0 km/h (0 Bft) NO 45 -0,3 C 0,3 C 0,0 km/h (0 Bft)
21.11.2013 02:00 0,4 C 95 % 1002,2 hPa 0,0 l/m 0,0 km/h (0 Bft) NO 45 -0,3 C 0,3 C 0,0 km/h (0 Bft)
21.11.2013 02:05 0,4 C 95 % 1002,1 hPa 0,0 l/m 0,0 km/h (0 Bft) NO 45 -0,3 C 0,2 C 0,0 km/h (0 Bft)
21.11.2013 02:10 0,4 C 95 % 1002,1 hPa 0,0 l/m 0,0 km/h (0 Bft) NO 45 -0,3 C 0,2 C 0,0 km/h (0 Bft)
21.11.2013 02:15 0,4 C 95 % 1002,1 hPa 0,0 l/m 0,0 km/h (0 Bft) NO 45 -0,3 C 0,2 C 0,0 km/h (0 Bft)
21.11.2013 02:20 0,5 C 95 % 1002,1 hPa 0,0 l/m 0,3 km/h (0 Bft) NO 45 -0,2 C 0,3 C 1,9 km/h (1 Bft)
21.11.2013 02:25 0,6 C 95 % 1001,8 hPa 0,0 l/m 1,0 km/h (0 Bft) NO 45 -0,1 C 0,4 C 0,0 km/h (0 Bft)
21.11.2013 02:30 0,6 C 95 % 1001,8 hPa 0,0 l/m 1,0 km/h (0 Bft) NO 45 -0,1 C 0,4 C 2,6 km/h (1 Bft)
21.11.2013 02:35 0,6 C 95 % 1001,8 hPa 0,0 l/m 1,1 km/h (1 Bft) N-NW 337 -0,1 C 0,5 C 3,5 km/h (1 Bft)
21.11.2013 02:40 0,6 C 95 % 1001,8 hPa 0,0 l/m 1,3 km/h (1 Bft) N-NW 337 -0,1 C 0,5 C 3,1 km/h (1 Bft)
21.11.2013 02:45 0,6 C 95 % 1001,6 hPa 0,0 l/m 1,4 km/h (1 Bft) W-NW 292 -0,1 C 0,5 C 2,6 km/h (1 Bft)
21.11.2013 02:50 0,6 C 95 % 1001,6 hPa 0,0 l/m 1,8 km/h (1 Bft) W-NW 292 -0,1 C 0,5 C 2,3 km/h (1 Bft)
21.11.2013 02:55 0,6 C 95 % 1001,6 hPa 0,0 l/m 2,3 km/h (1 Bft) N-NW 337 -0,1 C 0,5 C 3,4 km/h (1 Bft)
21.11.2013 03:00 0,6 C 95 % 1001,6 hPa 0,0 l/m 2,1 km/h (1 Bft) N-NW 337 -0,1 C 0,5 C 3,7 km/h (1 Bft)
21.11.2013 03:05 0,6 C 95 % 1001,4 hPa 0,0 l/m 1,3 km/h (1 Bft) W-NW 292 -0,1 C 0,5 C 0,0 km/h (0 Bft)
21.11.2013 03:10 0,6 C 95 % 1001,4 hPa 0,0 l/m 0,8 km/h (0 Bft) W-NW 292 -0,1 C 0,4 C 0,0 km/h (0 Bft)
21.11.2013 03:15 0,5 C 95 % 1001,4 hPa 0,0 l/m 1,1 km/h (1 Bft) N-NW 337 -0,2 C 0,4 C 2,6 km/h (1 Bft)
21.11.2013 03:20 0,5 C 95 % 1001,4 hPa 0,0 l/m 1,0 km/h (0 Bft) N-NW 337 -0,2 C 0,3 C 0,0 km/h (0 Bft)
21.11.2013 03:25 0,5 C 95 % 1001,1 hPa 0,0 l/m 1,8 km/h (1 Bft) N-NW 337 -0,2 C 0,3 C 4,5 km/h (1 Bft)
21.11.2013 03:30 0,5 C 95 % 1001,1 hPa 0,0 l/m 2,1 km/h (1 Bft) N-NW 337 -0,2 C 0,3 C 1,8 km/h (1 Bft)
21.11.2013 03:35 0,4 C 94 % 1001,1 hPa 0,0 l/m 1,6 km/h (1 Bft) N 360 -0,5 C 0,3 C 0,0 km/h (0 Bft)
21.11.2013 03:40 0,4 C 94 % 1001,1 hPa 0,0 l/m 1,8 km/h (1 Bft) W-NW 292 -0,5 C 0,3 C 3,9 km/h (1 Bft)
21.11.2013 03:45 0,4 C 94 % 1000,9 hPa 0,0 l/m 2,1 km/h (1 Bft) N-NW 337 -0,5 C 0,2 C 5,3 km/h (1 Bft)
21.11.2013 03:50 0,4 C 94 % 1000,9 hPa 0,0 l/m 1,8 km/h (1 Bft) N 360 -0,5 C 0,2 C 2,3 km/h (1 Bft)
21.11.2013 03:55 0,4 C 94 % 1000,9 hPa 0,0 l/m 0,6 km/h (0 Bft) NW 315 -0,5 C 0,2 C 0,0 km/h (0 Bft)
21.11.2013 04:00 0,4 C 94 % 1000,9 hPa 0,0 l/m 0,8 km/h (0 Bft) N-NW 337 -0,5 C 0,2 C 2,7 km/h (1 Bft)
21.11.2013 04:05 0,3 C 94 % 1000,6 hPa 0,0 l/m 2,3 km/h (1 Bft) N 360 -0,5 C 0,2 C 6,1 km/h (2 Bft)
21.11.2013 04:10 0,3 C 94 % 1000,6 hPa 0,0 l/m 3,4 km/h (1 Bft) N-NW 337 -0,5 C -0,4 C 4,7 km/h (1 Bft)
21.11.2013 04:15 0,3 C 94 % 1000,6 hPa 0,0 l/m 4,3 km/h (1 Bft) N-NW 337 -0,5 C -1,0 C 7,4 km/h (2 Bft)
21.11.2013 04:20 0,3 C 94 % 1000,6 hPa 0,0 l/m 4,7 km/h (1 Bft) N-NW 337 -0,5 C -1,2 C 6,8 km/h (2 Bft)
21.11.2013 04:25 0,4 C 94 % 1000,4 hPa 0,0 l/m 4,2 km/h (1 Bft) N-NW 337 -0,5 C -0,9 C 5,8 km/h (2 Bft)
21.11.2013 04:30 0,3 C 94 % 1000,4 hPa 0,0 l/m 3,2 km/h (1 Bft) N-NW 337 -0,5 C -0,3 C 3,5 km/h (1 Bft)
21.11.2013 04:35 0,3 C 94 % 1000,4 hPa 0,0 l/m 3,2 km/h (1 Bft) N-NW 337 -0,5 C -0,3 C 6,6 km/h (2 Bft)
21.11.2013 04:40 0,3 C 94 % 1000,4 hPa 0,0 l/m 3,7 km/h (1 Bft) N-NW 337 -0,5 C -0,7 C 5,3 km/h (1 Bft)
21.11.2013 04:45 0,3 C 94 % 1000,2 hPa 0,0 l/m 4,5 km/h (1 Bft) N-NW 337 -0,5 C -1,1 C 6,8 km/h (2 Bft)
21.11.2013 04:50 0,3 C 94 % 1000,2 hPa 0,0 l/m 4,2 km/h (1 Bft) N-NW 337 -0,5 C -0,9 C 2,6 km/h (1 Bft)
21.11.2013 04:55 0,3 C 94 % 1000,2 hPa 0,0 l/m 3,9 km/h (1 Bft) N-NW 337 -0,5 C -0,7 C 5,8 km/h (2 Bft)
21.11.2013 05:00 0,3 C 94 % 1000,2 hPa 0,0 l/m 3,7 km/h (1 Bft) N-NW 337 -0,5 C -0,7 C 6,1 km/h (2 Bft)
21.11.2013 05:05 0,3 C 94 % 1000,0 hPa 0,0 l/m 3,9 km/h (1 Bft) N-NW 337 -0,5 C -0,7 C 7,6 km/h (2 Bft)
21.11.2013 05:10 0,3 C 93 % 1000,0 hPa 0,0 l/m 4,0 km/h (1 Bft) N-NW 337 -0,7 C -0,8 C 5,1 km/h (1 Bft)
21.11.2013 05:15 0,3 C 93 % 1000,0 hPa 0,0 l/m 3,5 km/h (1 Bft) N-NW 337 -0,7 C -0,6 C 2,9 km/h (1 Bft)
21.11.2013 05:20 0,3 C 93 % 1000,0 hPa 0,0 l/m 3,1 km/h (1 Bft) N-NW 337 -0,7 C -0,4 C 5,1 km/h (1 Bft)
21.11.2013 05:25 0,3 C 93 % 999,8 hPa 0,0 l/m 2,6 km/h (1 Bft) N-NW 337 -0,7 C -0,1 C 3,7 km/h (1 Bft)
21.11.2013 05:30 0,3 C 93 % 999,8 hPa 0,0 l/m 2,9 km/h (1 Bft) N-NW 337 -0,7 C -0,3 C 3,1 km/h (1 Bft)
21.11.2013 05:35 0,3 C 93 % 999,8 hPa 0,0 l/m 3,4 km/h (1 Bft) N-NW 337 -0,7 C -0,6 C 6,9 km/h (2 Bft)
21.11.2013 05:40 0,3 C 93 % 999,8 hPa 0,0 l/m 3,7 km/h (1 Bft) N-NW 337 -0,7 C -0,8 C 6,1 km/h (2 Bft)
21.11.2013 05:45 0,2 C 93 % 999,8 hPa 0,0 l/m 4,3 km/h (1 Bft) N-NW 337 -0,8 C -1,2 C 6,6 km/h (2 Bft)
21.11.2013 05:50 0,2 C 93 % 999,8 hPa 0,0 l/m 4,5 km/h (1 Bft) N-NW 337 -0,8 C -1,2 C 6,8 km/h (2 Bft)
21.11.2013 05:55 0,2 C 93 % 999,8 hPa 0,0 l/m 4,8 km/h (1 Bft) N-NW 337 -0,8 C -1,4 C 4,8 km/h (1 Bft)
21.11.2013 06:00 0,2 C 93 % 999,8 hPa 0,0 l/m 4,3 km/h (1 Bft) N-NW 337 -0,8 C -1,3 C 2,3 km/h (1 Bft)
21.11.2013 06:05 0,1 C 93 % 999,4 hPa 0,0 l/m 4,2 km/h (1 Bft) N-NW 337 -0,9 C -1,3 C 4,8 km/h (1 Bft)
21.11.2013 06:10 0,0 C 93 % 999,4 hPa 0,0 l/m 4,3 km/h (1 Bft) N-NW 337 -1,0 C -1,5 C 4,3 km/h (1 Bft)
21.11.2013 06:15 -0,4 C 93 % 999,4 hPa 0,0 l/m 4,2 km/h (1 Bft) N-NW 337 -1,4 C -1,9 C 4,8 km/h (1 Bft)
21.11.2013 06:20 -0,7 C 93 % 999,4 hPa 0,0 l/m 3,5 km/h (1 Bft) N-NW 337 -1,7 C -1,6 C 4,8 km/h (1 Bft)
21.11.2013 06:25 -0,9 C 93 % 999,2 hPa 0,0 l/m 3,1 km/h (1 Bft) N-NW 337 -1,9 C -1,6 C 2,9 km/h (1 Bft)
21.11.2013 06:30 -1,1 C 93 % 999,2 hPa 0,0 l/m 3,4 km/h (1 Bft) N-NW 337 -2,1 C -1,9 C 4,8 km/h (1 Bft)
21.11.2013 06:35 -1,0 C 93 % 999,2 hPa 0,0 l/m 3,2 km/h (1 Bft) N-NW 337 -2,0 C -2,0 C 6,0 km/h (2 Bft)
21.11.2013 06:40 -1,2 C 93 % 999,2 hPa 0,0 l/m 2,7 km/h (1 Bft) N-NW 337 -2,2 C -1,8 C 0,0 km/h (0 Bft)
21.11.2013 06:45 -1,2 C 93 % 998,9 hPa 0,0 l/m 2,4 km/h (1 Bft) N-NW 337 -2,2 C -1,6 C 4,7 km/h (1 Bft)
21.11.2013 06:50 -1,3 C 93 % 998,9 hPa 0,0 l/m 3,1 km/h (1 Bft) N-NW 337 -2,3 C -2,2 C 5,8 km/h (2 Bft)
21.11.2013 06:55 -1,1 C 94 % 998,9 hPa 0,0 l/m 3,5 km/h (1 Bft) N-NW 337 -1,9 C -2,4 C 0,0 km/h (0 Bft)
21.11.2013 06:58 -1,1 C 94 % 998,9 hPa 0,0 l/m 3,1 km/h (1 Bft) N-NW 337 -1,9 C -2,2 C 4,8 km/h (1 Bft)
21.11.2013 07:00 -1,1 C 94 % 998,9 hPa 0,0 l/m 3,1 km/h (1 Bft) N-NW 337 -1,9 C -2,2 C 4,8 km/h (1 Bft)
21.11.2013 07:05 -0,9 C 94 % 998,8 hPa 0,0 l/m 3,1 km/h (1 Bft) N-NW 337 -1,7 C -1,9 C 4,5 km/h (1 Bft)
21.11.2013 07:10 -0,8 C 94 % 998,8 hPa 0,0 l/m 4,0 km/h (1 Bft) N-NW 337 -1,6 C -2,3 C 5,8 km/h (2 Bft)
21.11.2013 07:15 -0,7 C 95 % 998,8 hPa 0,0 l/m 4,2 km/h (1 Bft) N-NW 337 -1,4 C -2,2 C 3,9 km/h (1 Bft)
21.11.2013 07:20 -0,7 C 95 % 998,8 hPa 0,0 l/m 4,3 km/h (1 Bft) N-NW 337 -1,4 C -2,2 C 7,4 km/h (2 Bft)
21.11.2013 07:25 -0,6 C 95 % 998,6 hPa 0,0 l/m 4,5 km/h (1 Bft) N-NW 337 -1,3 C -2,2 C 8,0 km/h (2 Bft)
21.11.2013 07:30 -0,6 C 95 % 998,6 hPa 0,0 l/m 3,7 km/h (1 Bft) N-NW 337 -1,3 C -1,6 C 4,5 km/h (1 Bft)
21.11.2013 07:35 -0,5 C 95 % 998,6 hPa 0,0 l/m 3,2 km/h (1 Bft) N-NW 337 -1,2 C -1,2 C 6,4 km/h (2 Bft)
21.11.2013 07:40 -0,5 C 95 % 998,6 hPa 0,0 l/m 4,2 km/h (1 Bft) N-NW 337 -1,2 C -1,7 C 3,5 km/h (1 Bft)
21.11.2013 07:45 -0,5 C 95 % 998,5 hPa 0,0 l/m 4,2 km/h (1 Bft) N-NW 337 -1,2 C -1,7 C 8,9 km/h (2 Bft)
21.11.2013 07:50 -0,4 C 95 % 998,5 hPa 0,0 l/m 4,8 km/h (1 Bft) N-NW 337 -1,1 C -1,9 C 6,9 km/h (2 Bft)
21.11.2013 07:55 -0,4 C 95 % 998,5 hPa 0,0 l/m 6,1 km/h (2 Bft) N-NW 337 -1,1 C -2,6 C 10,0 km/h (2 Bft)
21.11.2013 08:00 -0,5 C 95 % 998,5 hPa 0,0 l/m 6,3 km/h (2 Bft) N-NW 337 -1,2 C -2,6 C 7,4 km/h (2 Bft)
21.11.2013 08:05 -0,5 C 96 % 998,1 hPa 0,0 l/m 4,5 km/h (1 Bft) N-NW 337 -1,1 C -1,8 C 3,2 km/h (1 Bft)
21.11.2013 08:10 -0,5 C 96 % 998,1 hPa 0,0 l/m 4,3 km/h (1 Bft) N-NW 337 -1,1 C -1,8 C 7,7 km/h (2 Bft)
21.11.2013 08:15 -0,5 C 96 % 998,1 hPa 0,0 l/m 5,5 km/h (1 Bft) N-NW 337 -1,1 C -2,4 C 5,8 km/h (2 Bft)
21.11.2013 08:20 -0,5 C 96 % 998,1 hPa 0,0 l/m 5,8 km/h (2 Bft) N-NW 337 -1,1 C -2,5 C 7,4 km/h (2 Bft)
21.11.2013 08:25 -0,5 C 96 % 997,9 hPa 0,0 l/m 5,5 km/h (1 Bft) N-NW 337 -1,1 C -2,4 C 9,0 km/h (2 Bft)
21.11.2013 08:30 -0,4 C 96 % 997,9 hPa 0,0 l/m 5,6 km/h (1 Bft) N-NW 337 -1,0 C -2,4 C 7,2 km/h (2 Bft)
21.11.2013 08:35 -0,5 C 96 % 997,9 hPa 0,0 l/m 6,0 km/h (2 Bft) N-NW 337 -1,1 C -2,4 C 11,7 km/h (2 Bft)
21.11.2013 08:40 -0,5 C 96 % 997,9 hPa 0,0 l/m 6,3 km/h (2 Bft) N-NW 337 -1,1 C -2,7 C 6,1 km/h (2 Bft)
21.11.2013 08:45 -0,5 C 96 % 997,6 hPa 0,0 l/m 6,4 km/h (2 Bft) N-NW 337 -1,1 C -2,7 C 7,1 km/h (2 Bft)
21.11.2013 08:50 -0,4 C 96 % 997,6 hPa 0,0 l/m 6,0 km/h (2 Bft) N-NW 337 -1,0 C -2,4 C 6,8 km/h (2 Bft)
21.11.2013 08:55 -0,4 C 96 % 997,6 hPa 0,0 l/m 6,3 km/h (2 Bft) N-NW 337 -1,0 C -2,6 C 7,6 km/h (2 Bft)
21.11.2013 09:00 -0,3 C 96 % 997,6 hPa 0,0 l/m 6,4 km/h (2 Bft) N-NW 337 -0,9 C -2,7 C 8,7 km/h (2 Bft)
21.11.2013 09:05 -0,2 C 96 % 997,2 hPa 0,0 l/m 6,0 km/h (2 Bft) N-NW 337 -0,8 C -2,3 C 12,9 km/h (3 Bft)
21.11.2013 09:10 -0,1 C 96 % 997,2 hPa 0,0 l/m 5,6 km/h (1 Bft) N-NW 337 -0,7 C -2,1 C 7,1 km/h (2 Bft)
21.11.2013 09:15 -0,3 C 95 % 997,2 hPa 0,0 l/m 5,8 km/h (2 Bft) N-NW 337 -1,0 C -2,2 C 4,7 km/h (1 Bft)
21.11.2013 09:20 -0,1 C 95 % 997,2 hPa 0,0 l/m 6,0 km/h (2 Bft) N-NW 337 -0,8 C -2,3 C 7,6 km/h (2 Bft)
21.11.2013 09:25 0,1 C 96 % 997,4 hPa 0,0 l/m 6,0 km/h (2 Bft) N-NW 337 -0,5 C -2,2 C 9,3 km/h (2 Bft)
21.11.2013 09:30 0,3 C 95 % 997,4 hPa 0,0 l/m 5,0 km/h (1 Bft) N-NW 337 -0,4 C -1,4 C 6,9 km/h (2 Bft)
21.11.2013 09:35 0,5 C 95 % 997,4 hPa 0,0 l/m 4,0 km/h (1 Bft) N-NW 337 -0,2 C -0,7 C 3,7 km/h (1 Bft)
21.11.2013 09:40 0,6 C 95 % 997,4 hPa 0,0 l/m 3,9 km/h (1 Bft) N-NW 337 -0,1 C -0,3 C 7,1 km/h (2 Bft)
21.11.2013 09:45 0,8 C 95 % 997,1 hPa 0,0 l/m 3,1 km/h (1 Bft) N-NW 337 0,1 C 0,3 C 5,8 km/h (2 Bft)
21.11.2013 09:50 0,8 C 95 % 997,1 hPa 0,0 l/m 3,1 km/h (1 Bft) N-NW 337 0,1 C 0,6 C 7,2 km/h (2 Bft)
21.11.2013 09:55 1,1 C 94 % 997,1 hPa 0,0 l/m 3,9 km/h (1 Bft) N 360 0,2 C 0,4 C 5,6 km/h (1 Bft)
21.11.2013 10:00 1,2 C 94 % 997,1 hPa 0,0 l/m 4,3 km/h (1 Bft) NW 315 0,3 C 0,6 C 5,0 km/h (1 Bft)
21.11.2013 10:05 1,5 C 93 % 997,2 hPa 0,0 l/m 4,7 km/h (1 Bft) N-NW 337 0,5 C 0,5 C 2,9 km/h (1 Bft)
21.11.2013 10:10 1,4 C 92 % 997,2 hPa 0,0 l/m 5,3 km/h (1 Bft) N-NO 22 0,2 C 0,4 C 8,4 km/h (2 Bft)
21.11.2013 10:15 1,5 C 92 % 997,2 hPa 0,0 l/m 4,3 km/h (1 Bft) N 360 0,3 C 1,0 C 6,0 km/h (2 Bft)
21.11.2013 10:20 1,5 C 91 % 997,2 hPa 0,0 l/m 4,3 km/h (1 Bft) N-NW 337 0,2 C 1,0 C 5,8 km/h (2 Bft)
21.11.2013 10:25 1,6 C 90 % 997,5 hPa 0,0 l/m 4,0 km/h (1 Bft) S-SW 202 0,1 C 1,1 C 0,0 km/h (0 Bft)
21.11.2013 10:30 1,7 C 90 % 997,5 hPa 0,0 l/m 2,4 km/h (1 Bft) N 360 0,2 C 2,1 C 3,5 km/h (1 Bft)
21.11.2013 10:35 1,8 C 90 % 997,5 hPa 0,0 l/m 1,1 km/h (1 Bft) SW 225 0,3 C 2,3 C 1,6 km/h (1 Bft)
21.11.2013 10:40 1,9 C 90 % 997,5 hPa 0,0 l/m 1,6 km/h (1 Bft) W-SW 247 0,4 C 2,2 C 1,6 km/h (1 Bft)
21.11.2013 10:45 1,9 C 89 % 997,5 hPa 0,0 l/m 2,7 km/h (1 Bft) W-NW 292 0,3 C 2,3 C 5,5 km/h (1 Bft)
21.11.2013 10:50 2,1 C 88 % 997,5 hPa 0,0 l/m 3,5 km/h (1 Bft) W-NW 292 0,3 C 1,9 C 4,2 km/h (1 Bft)
21.11.2013 10:55 2,1 C 86 % 997,5 hPa 0,0 l/m 3,9 km/h (1 Bft) N 360 0,0 C 2,1 C 0,0 km/h (0 Bft)
21.11.2013 11:00 2,5 C 85 % 997,5 hPa 0,0 l/m 2,6 km/h (1 Bft) N 360 0,2 C 3,2 C 2,4 km/h (1 Bft)
21.11.2013 11:05 3,1 C 85 % 998,1 hPa 0,0 l/m 1,6 km/h (1 Bft) S-SW 202 0,8 C 3,6 C 1,8 km/h (1 Bft)
21.11.2013 11:10 3,4 C 84 % 998,1 hPa 0,0 l/m 1,8 km/h (1 Bft) W-NW 292 1,0 C 4,2 C 2,3 km/h (1 Bft)
21.11.2013 11:15 3,5 C 83 % 998,1 hPa 0,0 l/m 2,6 km/h (1 Bft) S-SW 202 0,9 C 4,8 C 4,7 km/h (1 Bft)
21.11.2013 11:20 3,7 C 83 % 998,1 hPa 0,0 l/m 2,7 km/h (1 Bft) S 180 1,1 C 5,5 C 0,0 km/h (0 Bft)
21.11.2013 11:25 3,2 C 79 % 998,1 hPa 0,0 l/m 1,4 km/h (1 Bft) N-NW 337 -0,1 C 6,2 C 7,4 km/h (2 Bft)
21.11.2013 11:30 3,1 C 79 % 998,1 hPa 0,0 l/m 1,6 km/h (1 Bft) W 270 -0,2 C 6,1 C 2,4 km/h (1 Bft)
21.11.2013 11:35 3,6 C 79 % 998,1 hPa 0,0 l/m 2,9 km/h (1 Bft) W-SW 247 0,3 C 6,9 C 0,0 km/h (0 Bft)
21.11.2013 11:40 3,4 C 77 % 998,1 hPa 0,0 l/m 2,1 km/h (1 Bft) O 90 -0,2 C 7,7 C 0,0 km/h (0 Bft)
21.11.2013 11:45 3,5 C 78 % 998,0 hPa 0,0 l/m 1,3 km/h (1 Bft) N-NW 337 0,0 C 9,1 C 0,0 km/h (0 Bft)
21.11.2013 11:50 3,8 C 79 % 998,0 hPa 0,0 l/m 1,4 km/h (1 Bft) W-NW 292 0,5 C 9,7 C 2,9 km/h (1 Bft)
21.11.2013 11:55 3,3 C 76 % 998,0 hPa 0,0 l/m 1,8 km/h (1 Bft) N-NO 22 -0,5 C 9,4 C 0,0 km/h (0 Bft)
21.11.2013 11:58 3,4 C 76 % 998,0 hPa 0,0 l/m 2,7 km/h (1 Bft) NW 315 -0,4 C 9,4 C 3,2 km/h (1 Bft)
21.11.2013 12:00 3,4 C 76 % 998,0 hPa 0,0 l/m 2,7 km/h (1 Bft) NW 315 -0,4 C 9,4 C 3,2 km/h (1 Bft)
21.11.2013 12:05 4,0 C 77 % 998,2 hPa 0,0 l/m 2,3 km/h (1 Bft) W-NW 292 0,3 C 8,0 C 4,0 km/h (1 Bft)
21.11.2013 12:10 4,1 C 76 % 998,2 hPa 0,0 l/m 3,2 km/h (1 Bft) NW 315 0,3 C 7,6 C 7,4 km/h (2 Bft)
21.11.2013 12:15 4,1 C 75 % 998,2 hPa 0,0 l/m 5,8 km/h (2 Bft) N 360 0,1 C 5,4 C 7,6 km/h (2 Bft)
21.11.2013 12:20 3,9 C 75 % 998,2 hPa 0,0 l/m 6,3 km/h (2 Bft) S 180 -0,1 C 4,4 C 7,2 km/h (2 Bft)
21.11.2013 12:25 3,7 C 75 % 998,5 hPa 0,0 l/m 7,2 km/h (2 Bft) N-NW 337 -0,3 C 2,5 C 9,2 km/h (2 Bft)
21.11.2013 12:30 3,8 C 76 % 998,5 hPa 0,0 l/m 7,2 km/h (2 Bft) W-NW 292 -0,0 C 2,1 C 7,1 km/h (2 Bft)
21.11.2013 12:35 4,0 C 76 % 998,5 hPa 0,0 l/m 5,5 km/h (1 Bft) N-NW 337 0,2 C 3,4 C 5,5 km/h (1 Bft)
21.11.2013 12:40 3,7 C 76 % 998,5 hPa 0,0 l/m 4,2 km/h (1 Bft) N-NW 337 -0,1 C 4,1 C 4,7 km/h (1 Bft)
21.11.2013 12:45 3,8 C 76 % 998,2 hPa 0,0 l/m 3,9 km/h (1 Bft) NW 315 -0,0 C 4,3 C 4,5 km/h (1 Bft)
21.11.2013 12:50 3,7 C 76 % 998,2 hPa 0,0 l/m 4,0 km/h (1 Bft) N 360 -0,1 C 4,5 C 6,0 km/h (2 Bft)
21.11.2013 12:55 3,7 C 76 % 998,2 hPa 0,0 l/m 4,2 km/h (1 Bft) N 360 -0,1 C 4,2 C 4,8 km/h (1 Bft)
21.11.2013 13:00 3,9 C 76 % 998,2 hPa 0,0 l/m 3,7 km/h (1 Bft) N 360 0,1 C 4,4 C 0,0 km/h (0 Bft)
21.11.2013 13:05 4,0 C 76 % 998,1 hPa 0,0 l/m 2,7 km/h (1 Bft) W-NW 292 0,2 C 4,9 C 2,3 km/h (1 Bft)
21.11.2013 13:10 3,8 C 76 % 998,1 hPa 0,0 l/m 3,5 km/h (1 Bft) W-NW 292 -0,0 C 4,4 C 4,2 km/h (1 Bft)
21.11.2013 13:15 3,8 C 76 % 998,1 hPa 0,0 l/m 3,9 km/h (1 Bft) SW 225 -0,0 C 4,0 C 3,7 km/h (1 Bft)
21.11.2013 13:20 3,9 C 76 % 998,1 hPa 0,0 l/m 4,0 km/h (1 Bft) W-NW 292 0,1 C 3,9 C 6,4 km/h (2 Bft)
21.11.2013 13:25 3,8 C 75 % 997,8 hPa 0,0 l/m 2,6 km/h (1 Bft) W-NW 292 -0,2 C 5,0 C 0,0 km/h (0 Bft)
21.11.2013 13:30 4,0 C 76 % 997,8 hPa 0,0 l/m 1,3 km/h (1 Bft) W-NW 292 0,2 C 5,5 C 0,0 km/h (0 Bft)
21.11.2013 13:35 3,9 C 75 % 997,8 hPa 0,0 l/m 1,1 km/h (1 Bft) N 360 -0,1 C 5,9 C 4,5 km/h (1 Bft)
21.11.2013 13:40 3,6 C 74 % 997,8 hPa 0,0 l/m 2,7 km/h (1 Bft) N 360 -0,6 C 5,8 C 3,4 km/h (1 Bft)
21.11.2013 13:45 3,9 C 75 % 998,0 hPa 0,0 l/m 3,7 km/h (1 Bft) W-NW 292 -0,1 C 5,4 C 3,5 km/h (1 Bft)
21.11.2013 13:50 4,0 C 75 % 998,0 hPa 0,0 l/m 3,2 km/h (1 Bft) N 360 -0,0 C 5,6 C 3,1 km/h (1 Bft)
21.11.2013 13:55 4,2 C 76 % 998,0 hPa 0,0 l/m 2,4 km/h (1 Bft) W 270 0,4 C 5,6 C 5,5 km/h (1 Bft)
21.11.2013 14:00 4,1 C 75 % 998,0 hPa 0,0 l/m 2,7 km/h (1 Bft) N-NO 22 0,1 C 5,4 C 3,2 km/h (1 Bft)
21.11.2013 14:05 3,9 C 75 % 997,9 hPa 0,0 l/m 4,2 km/h (1 Bft) N-NO 22 -0,1 C 4,7 C 0,0 km/h (0 Bft)
21.11.2013 14:10 4,2 C 76 % 997,9 hPa 0,0 l/m 3,9 km/h (1 Bft) W 270 0,4 C 4,8 C 5,8 km/h (2 Bft)
21.11.2013 14:15 4,0 C 75 % 997,9 hPa 0,0 l/m 3,5 km/h (1 Bft) W 270 -0,0 C 4,5 C 3,1 km/h (1 Bft)
21.11.2013 14:20 4,0 C 76 % 997,9 hPa 0,0 l/m 3,5 km/h (1 Bft) W-SW 247 0,2 C 4,4 C 4,2 km/h (1 Bft)
21.11.2013 14:25 3,9 C 76 % 997,8 hPa 0,0 l/m 2,4 km/h (1 Bft) W-SW 247 0,1 C 4,7 C 6,1 km/h (2 Bft)
21.11.2013 14:30 3,9 C 76 % 997,8 hPa 0,0 l/m 2,9 km/h (1 Bft) W-NW 292 0,1 C 4,6 C 2,1 km/h (1 Bft)
21.11.2013 14:35 3,9 C 76 % 997,8 hPa 0,0 l/m 4,2 km/h (1 Bft) W 270 0,1 C 4,0 C 4,5 km/h (1 Bft)
21.11.2013 14:40 4,0 C 76 % 997,8 hPa 0,0 l/m 3,7 km/h (1 Bft) N-NW 337 0,2 C 4,2 C 4,3 km/h (1 Bft)
21.11.2013 14:45 4,0 C 76 % 997,8 hPa 0,0 l/m 4,0 km/h (1 Bft) N 360 0,2 C 4,1 C 3,5 km/h (1 Bft)
21.11.2013 14:50 3,9 C 76 % 997,8 hPa 0,0 l/m 3,5 km/h (1 Bft) W 270 0,1 C 4,3 C 5,5 km/h (1 Bft)
21.11.2013 14:55 3,7 C 77 % 997,8 hPa 0,0 l/m 2,4 km/h (1 Bft) NW 315 0,1 C 4,4 C 0,0 km/h (0 Bft)
21.11.2013 15:00 3,6 C 77 % 997,8 hPa 0,0 l/m 2,4 km/h (1 Bft) W-NW 292 -0,0 C 4,2 C 3,7 km/h (1 Bft)
21.11.2013 15:05 3,3 C 78 % 997,9 hPa 0,0 l/m 2,7 km/h (1 Bft) W-NW 292 -0,2 C 3,8 C 5,1 km/h (1 Bft)
21.11.2013 15:10 3,2 C 78 % 997,9 hPa 0,0 l/m 3,2 km/h (1 Bft) W 270 -0,3 C 3,4 C 5,0 km/h (1 Bft)
21.11.2013 15:15 3,2 C 79 % 997,9 hPa 0,0 l/m 2,7 km/h (1 Bft) W 270 -0,1 C 3,5 C 6,9 km/h (2 Bft)
21.11.2013 15:20 3,0 C 79 % 997,9 hPa 0,0 l/m 3,2 km/h (1 Bft) W-NW 292 -0,3 C 3,0 C 5,1 km/h (1 Bft)
21.11.2013 15:25 2,9 C 79 % 998,0 hPa 0,0 l/m 3,7 km/h (1 Bft) W-NW 292 -0,4 C 2,6 C 2,3 km/h (1 Bft)
21.11.2013 15:30 2,9 C 80 % 998,0 hPa 0,0 l/m 2,7 km/h (1 Bft) W 270 -0,2 C 3,1 C 4,7 km/h (1 Bft)
21.11.2013 15:35 2,8 C 80 % 998,0 hPa 0,0 l/m 1,9 km/h (1 Bft) W 270 -0,3 C 2,9 C 3,2 km/h (1 Bft)
21.11.2013 15:40 2,7 C 81 % 998,0 hPa 0,0 l/m 2,7 km/h (1 Bft) W-SW 247 -0,2 C 2,9 C 3,2 km/h (1 Bft)
21.11.2013 15:45 2,6 C 81 % 998,3 hPa 0,0 l/m 2,3 km/h (1 Bft) SW 225 -0,3 C 2,8 C 1,6 km/h (1 Bft)
21.11.2013 15:50 2,6 C 81 % 998,3 hPa 0,0 l/m 1,9 km/h (1 Bft) S 180 -0,3 C 2,8 C 2,3 km/h (1 Bft)
21.11.2013 15:55 2,6 C 81 % 998,3 hPa 0,0 l/m 2,6 km/h (1 Bft) SW 225 -0,3 C 2,7 C 3,7 km/h (1 Bft)
21.11.2013 16:00 2,5 C 82 % 998,3 hPa 0,0 l/m 3,2 km/h (1 Bft) W-SW 247 -0,3 C 2,3 C 5,0 km/h (1 Bft)
21.11.2013 16:05 2,5 C 82 % 998,6 hPa 0,0 l/m 2,4 km/h (1 Bft) W 270 -0,3 C 2,5 C 3,5 km/h (1 Bft)
21.11.2013 16:10 2,4 C 82 % 998,6 hPa 0,0 l/m 2,9 km/h (1 Bft) W-SW 247 -0,4 C 2,3 C 7,1 km/h (2 Bft)
21.11.2013 16:15 2,4 C 82 % 998,6 hPa 0,0 l/m 2,6 km/h (1 Bft) W 270 -0,4 C 2,4 C 4,8 km/h (1 Bft)
21.11.2013 16:20 2,3 C 83 % 998,6 hPa 0,0 l/m 2,6 km/h (1 Bft) O 90 -0,3 C 2,4 C 4,0 km/h (1 Bft)
21.11.2013 16:25 2,3 C 82 % 998,6 hPa 0,0 l/m 2,4 km/h (1 Bft) NW 315 -0,4 C 2,4 C 4,5 km/h (1 Bft)
21.11.2013 16:30 2,2 C 83 % 998,6 hPa 0,0 l/m 2,3 km/h (1 Bft) W 270 -0,4 C 2,3 C 1,6 km/h (1 Bft)
21.11.2013 16:35 2,2 C 83 % 998,6 hPa 0,0 l/m 1,9 km/h (1 Bft) W 270 -0,4 C 2,3 C 1,8 km/h (1 Bft)
21.11.2013 16:40 2,2 C 83 % 998,6 hPa 0,0 l/m 1,8 km/h (1 Bft) NW 315 -0,4 C 2,3 C 2,6 km/h (1 Bft)
21.11.2013 16:45 2,2 C 83 % 998,8 hPa 0,0 l/m 2,1 km/h (1 Bft) W-NW 292 -0,4 C 2,2 C 4,3 km/h (1 Bft)
21.11.2013 16:50 2,1 C 83 % 998,8 hPa 0,0 l/m 2,7 km/h (1 Bft) NW 315 -0,5 C 2,2 C 1,6 km/h (1 Bft)
21.11.2013 16:55 2,0 C 83 % 998,8 hPa 0,0 l/m 3,1 km/h (1 Bft) W-NW 292 -0,6 C 1,8 C 2,4 km/h (1 Bft)
21.11.2013 16:58 2,0 C 83 % 998,8 hPa 0,0 l/m 1,9 km/h (1 Bft) N 360 -0,6 C 2,1 C 3,7 km/h (1 Bft)
21.11.2013 17:00 2,0 C 83 % 998,8 hPa 0,0 l/m 1,9 km/h (1 Bft) N 360 -0,6 C 2,1 C 3,7 km/h (1 Bft)
21.11.2013 17:05 2,0 C 83 % 998,6 hPa 0,0 l/m 2,1 km/h (1 Bft) W-NW 292 -0,6 C 2,1 C 7,6 km/h (2 Bft)
21.11.2013 17:10 2,0 C 83 % 998,6 hPa 0,0 l/m 2,3 km/h (1 Bft) N 360 -0,6 C 2,1 C 0,0 km/h (0 Bft)
21.11.2013 17:15 1,9 C 84 % 998,6 hPa 0,0 l/m 1,6 km/h (1 Bft) W-NW 292 -0,5 C 2,1 C 2,3 km/h (1 Bft)
21.11.2013 17:20 1,9 C 84 % 998,6 hPa 0,0 l/m 1,3 km/h (1 Bft) N-NW 337 -0,5 C 2,0 C 3,9 km/h (1 Bft)
21.11.2013 17:25 1,9 C 84 % 998,0 hPa 0,0 l/m 2,4 km/h (1 Bft) NW 315 -0,5 C 2,0 C 5,3 km/h (1 Bft)
21.11.2013 17:30 1,9 C 84 % 998,0 hPa 0,0 l/m 3,4 km/h (1 Bft) W-NW 292 -0,5 C 1,5 C 2,9 km/h (1 Bft)
21.11.2013 17:35 1,8 C 84 % 998,0 hPa 0,0 l/m 3,1 km/h (1 Bft) W 270 -0,6 C 1,6 C 0,0 km/h (0 Bft)
21.11.2013 17:40 1,8 C 84 % 998,0 hPa 0,0 l/m 2,1 km/h (1 Bft) W 270 -0,6 C 1,9 C 0,0 km/h (0 Bft)
21.11.2013 17:45 1,8 C 84 % 998,1 hPa 0,0 l/m 0,3 km/h (0 Bft) W-SW 247 -0,6 C 1,8 C 0,0 km/h (0 Bft)
21.11.2013 17:50 1,8 C 84 % 998,1 hPa 0,0 l/m 0,3 km/h (0 Bft) W-SW 247 -0,6 C 1,8 C 3,1 km/h (1 Bft)
21.11.2013 17:55 1,8 C 84 % 998,1 hPa 0,0 l/m 1,1 km/h (1 Bft) O-SO 112 -0,6 C 1,8 C 0,0 km/h (0 Bft)
21.11.2013 18:00 1,8 C 84 % 998,1 hPa 0,0 l/m 1,0 km/h (0 Bft) O-SO 112 -0,6 C 1,8 C 0,0 km/h (0 Bft)
21.11.2013 18:05 1,8 C 84 % 998,6 hPa 0,0 l/m 0,0 km/h (0 Bft) O-SO 112 -0,6 C 1,8 C 0,0 km/h (0 Bft)
21.11.2013 18:10 1,8 C 84 % 998,6 hPa 0,0 l/m 0,2 km/h (0 Bft) O-SO 112 -0,6 C 1,7 C 0,0 km/h (0 Bft)
21.11.2013 18:15 1,8 C 85 % 998,6 hPa 0,0 l/m 0,2 km/h (0 Bft) S-SO 157 -0,4 C 1,7 C 0,0 km/h (0 Bft)
21.11.2013 18:20 1,8 C 85 % 998,6 hPa 0,0 l/m 1,0 km/h (0 Bft) W-NW 292 -0,4 C 1,8 C 3,9 km/h (1 Bft)
21.11.2013 18:25 1,8 C 85 % 998,8 hPa 0,0 l/m 1,8 km/h (1 Bft) W-NW 292 -0,4 C 1,8 C 0,0 km/h (0 Bft)
21.11.2013 18:30 1,8 C 85 % 998,8 hPa 0,0 l/m 1,1 km/h (1 Bft) W 270 -0,4 C 1,8 C 0,0 km/h (0 Bft)
21.11.2013 18:35 1,8 C 85 % 998,8 hPa 0,0 l/m 0,3 km/h (0 Bft) W-NW 292 -0,4 C 1,7 C 3,7 km/h (1 Bft)
21.11.2013 18:40 1,7 C 85 % 998,8 hPa 0,0 l/m 1,8 km/h (1 Bft) W-NW 292 -0,5 C 1,7 C 3,1 km/h (1 Bft)
21.11.2013 18:45 1,7 C 85 % 998,9 hPa 0,0 l/m 1,9 km/h (1 Bft) W 270 -0,5 C 1,7 C 0,0 km/h (0 Bft)
21.11.2013 18:50 1,7 C 86 % 998,9 hPa 0,0 l/m 0,8 km/h (0 Bft) W-SW 247 -0,4 C 1,7 C 1,9 km/h (1 Bft)
21.11.2013 18:55 1,7 C 86 % 998,9 hPa 0,0 l/m 0,8 km/h (0 Bft) W 270 -0,4 C 1,7 C 0,0 km/h (0 Bft)
21.11.2013 19:00 1,7 C 86 % 998,9 hPa 0,0 l/m 0,6 km/h (0 Bft) W-SW 247 -0,4 C 1,7 C 0,0 km/h (0 Bft)
21.11.2013 19:05 1,7 C 86 % 999,0 hPa 0,0 l/m 0,6 km/h (0 Bft) W-SW 247 -0,4 C 1,7 C 2,1 km/h (1 Bft)
21.11.2013 19:10 1,7 C 86 % 999,0 hPa 0,0 l/m 1,0 km/h (0 Bft) W 270 -0,4 C 1,6 C 4,8 km/h (1 Bft)
21.11.2013 19:15 1,7 C 86 % 999,0 hPa 0,0 l/m 1,0 km/h (0 Bft) W 270 -0,4 C 1,6 C 2,9 km/h (1 Bft)
21.11.2013 19:20 1,7 C 86 % 999,0 hPa 0,0 l/m 1,1 km/h (1 Bft) W-SW 247 -0,4 C 1,6 C 0,0 km/h (0 Bft)
21.11.2013 19:25 1,6 C 86 % 998,8 hPa 0,0 l/m 2,1 km/h (1 Bft) W-NW 292 -0,5 C 1,6 C 3,9 km/h (1 Bft)
21.11.2013 19:30 1,6 C 86 % 998,8 hPa 0,0 l/m 2,9 km/h (1 Bft) W 270 -0,5 C 1,4 C 3,2 km/h (1 Bft)
21.11.2013 19:35 1,6 C 86 % 998,8 hPa 0,0 l/m 2,4 km/h (1 Bft) W-NW 292 -0,5 C 1,5 C 2,6 km/h (1 Bft)
21.11.2013 19:40 1,5 C 87 % 998,8 hPa 0,0 l/m 1,3 km/h (1 Bft) W-NW 292 -0,4 C 1,5 C 0,0 km/h (0 Bft)
21.11.2013 19:45 1,5 C 87 % 998,7 hPa 0,0 l/m 0,6 km/h (0 Bft) W 270 -0,4 C 1,5 C 0,0 km/h (0 Bft)
21.11.2013 19:50 1,5 C 87 % 998,7 hPa 0,0 l/m 0,2 km/h (0 Bft) W-SW 247 -0,4 C 1,5 C 0,0 km/h (0 Bft)
21.11.2013 19:55 1,5 C 87 % 998,7 hPa 0,0 l/m 0,2 km/h (0 Bft) O 90 -0,4 C 1,5 C 4,3 km/h (1 Bft)
21.11.2013 20:00 1,6 C 87 % 998,7 hPa 0,0 l/m 0,5 km/h (0 Bft) O-SO 112 -0,3 C 1,5 C 0,0 km/h (0 Bft)
21.11.2013 20:05 1,5 C 87 % 999,0 hPa 0,0 l/m 0,5 km/h (0 Bft) N 360 -0,4 C 1,5 C 0,0 km/h (0 Bft)
21.11.2013 20:10 1,6 C 87 % 999,0 hPa 0,0 l/m 0,3 km/h (0 Bft) W-NW 292 -0,3 C 1,5 C 1,8 km/h (1 Bft)
21.11.2013 20:15 1,5 C 87 % 999,0 hPa 0,0 l/m 0,6 km/h (0 Bft) W-NW 292 -0,4 C 1,5 C 0,0 km/h (0 Bft)
21.11.2013 20:20 1,6 C 88 % 999,0 hPa 0,0 l/m 1,0 km/h (0 Bft) W-NW 292 -0,2 C 1,5 C 3,1 km/h (1 Bft)
21.11.2013 20:25 1,6 C 88 % 998,9 hPa 0,0 l/m 0,8 km/h (0 Bft) W-NW 292 -0,2 C 1,5 C 1,8 km/h (1 Bft)
21.11.2013 20:30 1,6 C 88 % 998,9 hPa 0,0 l/m 0,5 km/h (0 Bft) N-NW 337 -0,2 C 1,5 C 0,0 km/h (0 Bft)
21.11.2013 20:35 1,5 C 88 % 998,9 hPa 0,0 l/m 0,6 km/h (0 Bft) W-NW 292 -0,3 C 1,5 C 2,3 km/h (1 Bft)
21.11.2013 20:40 1,5 C 88 % 998,9 hPa 0,0 l/m 1,3 km/h (1 Bft) W 270 -0,3 C 1,4 C 0,0 km/h (0 Bft)
21.11.2013 20:45 1,5 C 88 % 999,0 hPa 0,0 l/m 0,8 km/h (0 Bft) N-NW 337 -0,3 C 1,4 C 0,0 km/h (0 Bft)
21.11.2013 20:50 1,5 C 88 % 999,0 hPa 0,0 l/m 0,3 km/h (0 Bft) W-NW 292 -0,3 C 1,4 C 0,0 km/h (0 Bft)
21.11.2013 20:55 1,4 C 88 % 999,0 hPa 0,0 l/m 0,6 km/h (0 Bft) W-SW 247 -0,4 C 1,4 C 2,6 km/h (1 Bft)
21.11.2013 21:00 1,4 C 89 % 999,0 hPa 0,0 l/m 1,6 km/h (1 Bft) W 270 -0,2 C 1,3 C 3,9 km/h (1 Bft)
21.11.2013 21:05 1,4 C 89 % 999,1 hPa 0,0 l/m 3,1 km/h (1 Bft) NW 315 -0,2 C 1,0 C 0,0 km/h (0 Bft)
21.11.2013 21:10 1,4 C 89 % 999,1 hPa 0,0 l/m 2,3 km/h (1 Bft) W-SW 247 -0,2 C 1,4 C 0,0 km/h (0 Bft)
21.11.2013 21:15 1,4 C 89 % 999,1 hPa 0,0 l/m 0,5 km/h (0 Bft) W-NW 292 -0,2 C 1,3 C 0,0 km/h (0 Bft)
21.11.2013 21:20 1,4 C 89 % 999,1 hPa 0,0 l/m 0,3 km/h (0 Bft) W-NW 292 -0,2 C 1,3 C 5,5 km/h (1 Bft)
21.11.2013 21:25 1,4 C 89 % 999,4 hPa 0,0 l/m 2,3 km/h (1 Bft) N-NW 337 -0,2 C 1,3 C 2,3 km/h (1 Bft)
21.11.2013 21:30 1,3 C 89 % 999,4 hPa 0,0 l/m 3,2 km/h (1 Bft) W-NW 292 -0,3 C 0,7 C 6,9 km/h (2 Bft)
21.11.2013 21:35 1,3 C 89 % 999,4 hPa 0,0 l/m 2,4 km/h (1 Bft) W-NW 292 -0,3 C 1,2 C 3,5 km/h (1 Bft)
21.11.2013 21:40 1,3 C 89 % 999,4 hPa 0,0 l/m 3,2 km/h (1 Bft) W-NW 292 -0,3 C 0,7 C 2,7 km/h (1 Bft)
21.11.2013 21:45 1,3 C 89 % 999,4 hPa 0,0 l/m 1,9 km/h (1 Bft) W-SW 247 -0,3 C 1,1 C 0,0 km/h (0 Bft)
21.11.2013 21:50 1,3 C 89 % 999,4 hPa 0,0 l/m 0,8 km/h (0 Bft) W 270 -0,3 C 1,1 C 0,0 km/h (0 Bft)
21.11.2013 21:53 1,3 C 90 % 999,4 hPa 0,0 l/m 0,2 km/h (0 Bft) W-NW 292 -0,2 C 1,1 C 0,0 km/h (0 Bft)
21.11.2013 21:55 1,3 C 90 % 999,4 hPa 0,0 l/m 0,2 km/h (0 Bft) W-NW 292 -0,2 C 1,1 C 0,0 km/h (0 Bft)
21.11.2013 22:00 1,3 C 90 % 999,4 hPa 0,0 l/m 1,0 km/h (0 Bft) N-NW 337 -0,2 C 1,1 C 3,5 km/h (1 Bft)
21.11.2013 22:05 1,2 C 90 % 999,7 hPa 0,0 l/m 1,9 km/h (1 Bft) W-NW 292 -0,3 C 1,1 C 3,1 km/h (1 Bft)
21.11.2013 22:10 1,3 C 90 % 999,7 hPa 0,0 l/m 1,9 km/h (1 Bft) W-NW 292 -0,2 C 1,1 C 3,4 km/h (1 Bft)
21.11.2013 22:15 1,3 C 91 % 999,7 hPa 0,0 l/m 1,8 km/h (1 Bft) W-SW 247 -0,0 C 1,1 C 3,1 km/h (1 Bft)
21.11.2013 22:20 1,2 C 91 % 999,7 hPa 0,0 l/m 2,3 km/h (1 Bft) W 270 -0,1 C 1,1 C 3,4 km/h (1 Bft)
21.11.2013 22:25 1,2 C 91 % 999,6 hPa 0,0 l/m 2,4 km/h (1 Bft) N-NW 337 -0,1 C 1,1 C 3,7 km/h (1 Bft)
21.11.2013 22:30 1,2 C 91 % 999,6 hPa 0,0 l/m 2,1 km/h (1 Bft) N-NW 337 -0,1 C 1,1 C 1,6 km/h (1 Bft)
21.11.2013 22:35 1,2 C 91 % 999,6 hPa 0,0 l/m 2,3 km/h (1 Bft) N-NW 337 -0,1 C 1,1 C 3,2 km/h (1 Bft)
21.11.2013 22:40 1,2 C 91 % 999,6 hPa 0,0 l/m 2,1 km/h (1 Bft) W-NW 292 -0,1 C 1,1 C 6,9 km/h (2 Bft)
21.11.2013 22:45 1,2 C 91 % 999,2 hPa 0,0 l/m 3,1 km/h (1 Bft) N-NW 337 -0,1 C 0,6 C 4,5 km/h (1 Bft)
21.11.2013 22:50 1,2 C 92 % 999,2 hPa 0,0 l/m 3,2 km/h (1 Bft) W 270 0,0 C 0,5 C 4,5 km/h (1 Bft)
21.11.2013 22:55 1,2 C 92 % 999,2 hPa 0,0 l/m 2,1 km/h (1 Bft) N 360 0,0 C 1,0 C 4,5 km/h (1 Bft)
21.11.2013 23:00 1,2 C 92 % 999,2 hPa 0,0 l/m 1,9 km/h (1 Bft) W 270 0,0 C 1,0 C 0,0 km/h (0 Bft)
21.11.2013 23:05 1,2 C 92 % 999,3 hPa 0,0 l/m 2,4 km/h (1 Bft) W-SW 247 0,0 C 1,1 C 2,4 km/h (1 Bft)
21.11.2013 23:10 1,2 C 92 % 999,3 hPa 0,0 l/m 1,9 km/h (1 Bft) N 360 0,0 C 1,1 C 3,7 km/h (1 Bft)
21.11.2013 23:15 1,2 C 92 % 999,3 hPa 0,0 l/m 2,4 km/h (1 Bft) N-NW 337 0,0 C 1,1 C 5,0 km/h (1 Bft)
21.11.2013 23:20 1,2 C 92 % 999,3 hPa 0,0 l/m 3,5 km/h (1 Bft) W-NW 292 0,0 C 0,4 C 4,5 km/h (1 Bft)
21.11.2013 23:25 1,2 C 92 % 999,1 hPa 0,0 l/m 4,0 km/h (1 Bft) N-NW 337 0,0 C 0,2 C 2,6 km/h (1 Bft)
21.11.2013 23:30 1,2 C 92 % 999,1 hPa 0,0 l/m 3,4 km/h (1 Bft) NW 315 0,0 C 0,6 C 1,6 km/h (1 Bft)
21.11.2013 23:35 1,2 C 92 % 999,1 hPa 0,0 l/m 3,2 km/h (1 Bft) N-NW 337 0,0 C 0,6 C 6,9 km/h (2 Bft)
21.11.2013 23:40 1,2 C 92 % 999,1 hPa 0,0 l/m 4,3 km/h (1 Bft) N-NW 337 0,0 C 0,1 C 6,6 km/h (2 Bft)
21.11.2013 23:45 1,2 C 92 % 999,2 hPa 0,0 l/m 5,5 km/h (1 Bft) N 360 0,0 C -0,4 C 6,4 km/h (2 Bft)
21.11.2013 23:50 1,2 C 92 % 999,2 hPa 0,0 l/m 4,3 km/h (1 Bft) NW 315 0,0 C 0,1 C 0,0 km/h (0 Bft)
21.11.2013 23:55 1,2 C 92 % 999,2 hPa 0,0 l/m 3,4 km/h (1 Bft) N-NW 337 0,0 C 0,7 C 4,2 km/h (1 Bft)
_ Min-Zeit 06:50 13:40 10:00 - 18:05 - - 06:50 08:40 23:50
Minimum _ -1,3 C 74 % 997,1 hPa - 0,0 km/h (0 Bft) - - -2,3 C -2,7 C 0,0 km/h (0 Bft)
_ Max-Zeit 14:10 09:25 00:00 23:55 12:30 - - 11:20 11:50 09:05
Maximum _ 4,2 C 96 % 1003,4 hPa 0,0 l/m 7,2 km/h
W-NW (2 Bft)
- - 1,1 C 9,7 C 12,9 km/h
N-NW (3 Bft)
Durchschnitt _ 1,4 C 88 % 999,2 hPa #0,0 l/m 2,6 km/h (1 Bft) N-NW - -0,4 C 1,2 C 3,4 km/h (1 Bft)